Tracking 19717 objects as of 25-Jun-2019
HD Live streaming from Space Station
objects crossing your sky now

USA 12

Track USA 12 now!
USA 12 is classified as:


NORAD ID: 16117
Int'l Code: 1985-092C
Perigee: 36,121.6 km
Apogee: 36,192.9 km
Inclination: 15.3 °
Period: 1,454.7 minutes
Semi major axis: 42528 km
RCS: Unknown
Launch date: October 3, 1985
Source: United States (US)
Launch site: AIR FORCE EASTERN TEST RANGE (AFETR)
aabbcc
Your satellite tracking list
Your tracking list is empty




NASA's NSSDC Master Catalog

Two Line Element Set (TLE):
1 16117U 85092C   19174.13597601 +.00000026 +00000-0 +00000-0 0  9992
2 16117 015.3360 006.7624 0008390 025.2708 334.7781 00.98988953000456
Source of the keplerian elements: McCants